| time (UTC) | temp F | wind direction | speed MPH | gust MPH | rain 1hr in | rain 24hr in | rain mn in | humidity % | barometer mb |
| 20260903202445 | 88 | 181 | 5.0 | 10.0 | 0.00 | 0.00 | 0.00 | 63 | 1012.8 |
| 20260903201939 | 89 | 166 | 5.0 | 9.0 | 0.00 | 0.00 | 0.00 | 63 | 1013.0 |
| 20260903201435 | 89 | 168 | 6.0 | 9.0 | 0.00 | 0.00 | 0.00 | 63 | 1012.8 |
| 20260903200933 | 88 | 135 | 11.0 | 14.0 | 0.00 | 0.00 | 0.00 | 64 | 1012.9 |
| 20260903200428 | 87 | 101 | 9.0 | 11.0 | 0.00 | 0.00 | 0.00 | 65 | 1013.0 |
| 20260903195923 | 88 | 143 | 4.0 | 6.0 | 0.00 | 0.00 | 0.00 | 65 | 1013.0 |
| 20260903195420 | 88 | 169 | 6.0 | 8.0 | 0.00 | 0.00 | 0.00 | 65 | 1013.0 |
| 20260903194914 | 87 | 163 | 7.0 | 8.0 | 0.00 | 0.00 | 0.00 | 66 | 1013.2 |
| 20260903194410 | 88 | 144 | 8.0 | 17.0 | 0.00 | 0.00 | 0.00 | 65 | 1013.3 |
| 20260903193905 | 89 | 212 | 10.0 | 13.0 | 0.00 | 0.00 | 0.00 | 64 | 1013.0 |
| 20260903193402 | 89 | 124 | 5.0 | 9.0 | 0.00 | 0.00 | 0.00 | 63 | 1013.2 |
| 20260903192856 | 90 | 201 | 11.0 | 14.0 | 0.00 | 0.00 | 0.00 | 60 | 1013.3 |
| 20260903192352 | 89 | 321 | 4.0 | 14.0 | 0.00 | 0.00 | 0.00 | 64 | 1013.3 |
| 20260903191848 | 88 | 176 | 5.0 | 10.0 | 0.00 | 0.00 | 0.00 | 65 | 1013.3 |
| 20260903191344 | 88 | 165 | 11.0 | 14.0 | 0.00 | 0.00 | 0.00 | 65 | 1013.4 |
| 20260903190843 | 87 | 195 | 8.0 | 10.0 | 0.00 | 0.00 | 0.00 | 67 | 1013.7 |
| 20260903190338 | 87 | 216 | 12.0 | 15.0 | 0.00 | 0.00 | 0.00 | 67 | 1013.7 |
| 20260903185832 | 87 | 203 | 10.0 | 15.0 | 0.00 | 0.00 | 0.00 | 67 | 1013.5 |
| 20260903185327 | 87 | 190 | 6.0 | 8.0 | 0.00 | 0.00 | 0.00 | 66 | 1013.9 |
| 20260903184823 | 86 | 104 | 4.0 | 11.0 | 0.00 | 0.00 | 0.00 | 68 | 1013.8 |
| 20260903184320 | 86 | 108 | 9.0 | 14.0 | 0.00 | 0.00 | 0.00 | 69 | 1013.9 |
| 20260903183814 | 86 | 215 | 9.0 | 18.0 | 0.00 | 0.00 | 0.00 | 69 | 1013.9 |
| 20260903183309 | 85 | 101 | 9.0 | 14.0 | 0.00 | 0.00 | 0.00 | 70 | 1014.2 |
| 20260903182808 | 85 | 186 | 10.0 | 16.0 | 0.00 | 0.00 | 0.00 | 71 | 1014.2 |
| 20260903182306 | 85 | 174 | 6.0 | 8.0 | 0.00 | 0.00 | 0.00 | 70 | 1014.4 |
| 20260903181801 | 85 | 229 | 8.0 | 13.0 | 0.00 | 0.00 | 0.00 | 71 | 1014.4 |
| 20260903181257 | 85 | 128 | 7.0 | 10.0 | 0.00 | 0.00 | 0.00 | 71 | 1014.5 |
| 20260903180752 | 86 | 186 | 11.0 | 18.0 | 0.00 | 0.00 | 0.00 | 70 | 1014.5 |
| 20260903180250 | 85 | 277 | 6.0 | 14.0 | 0.00 | 0.00 | 0.00 | 72 | 1014.5 |
| 20260903175750 | 85 | 157 | 11.0 | 13.0 | 0.00 | 0.00 | 0.00 | 71 | 1014.4 |
| 20260903175244 | 85 | 238 | 5.0 | 14.0 | 0.00 | 0.00 | 0.00 | 71 | 1014.5 |
| 20260903174744 | 84 | 170 | 3.0 | 8.0 | 0.00 | 0.00 | 0.00 | 73 | 1014.5 |
| 20260903174239 | 84 | 203 | 11.0 | 14.0 | 0.00 | 0.00 | 0.00 | 74 | 1014.6 |
| 20260903173734 | 84 | 199 | 10.0 | 14.0 | 0.00 | 0.00 | 0.00 | 74 | 1014.6 |
| 20260903173230 | 84 | 100 | 10.0 | 15.0 | 0.00 | 0.00 | 0.00 | 74 | 1014.8 |
| 20260903172730 | 84 | 75 | 6.0 | 14.0 | 0.00 | 0.00 | 0.00 | 75 | 1014.9 |
| 20260903172225 | 83 | 198 | 9.0 | 11.0 | 0.00 | 0.00 | 0.00 | 76 | 1014.6 |
| 20260903171720 | 83 | 143 | 7.0 | 16.0 | 0.00 | 0.00 | 0.00 | 77 | 1015.0 |
| 20260903171216 | 83 | 175 | 6.0 | 22.0 | 0.00 | 0.00 | 0.00 | 77 | 1014.9 |
| 20260903170714 | 83 | 193 | 11.0 | 16.0 | 0.00 | 0.00 | 0.00 | 77 | 1014.8 |
| 20260903170210 | 84 | 204 | 10.0 | 13.0 | 0.00 | 0.00 | 0.00 | 76 | 1014.8 |
| 20260903165708 | 84 | 160 | 7.0 | 14.0 | 0.00 | 0.00 | 0.00 | 77 | 1014.8 |
| 20260903165203 | 84 | 113 | 4.0 | 15.0 | 0.00 | 0.00 | 0.00 | 77 | 1014.7 |
| 20260903164658 | 84 | 115 | 9.0 | 13.0 | 0.00 | 0.00 | 0.00 | 76 | 1014.9 |
| 20260903164154 | 84 | 181 | 5.0 | 11.0 | 0.00 | 0.00 | 0.00 | 77 | 1014.7 |
| 20260903163653 | 84 | 115 | 7.0 | 14.0 | 0.00 | 0.00 | 0.00 | 77 | 1014.6 |
| 20260903163150 | 84 | 132 | 9.0 | 16.0 | 0.00 | 0.00 | 0.00 | 77 | 1014.5 |
| 20260903162645 | 83 | 172 | 4.0 | 13.0 | 0.00 | 0.00 | 0.00 | 78 | 1014.5 |
| 20260903162141 | 83 | 149 | 9.0 | 14.0 | 0.00 | 0.00 | 0.00 | 78 | 1014.5 |
| 20260903161636 | 83 | 163 | 4.0 | 9.0 | 0.00 | 0.00 | 0.00 | 78 | 1014.7 |
| 20260903161132 | 83 | 176 | 4.0 | 8.0 | 0.00 | 0.00 | 0.00 | 79 | 1014.7 |
| 20260903160627 | 83 | 70 | 6.0 | 15.0 | 0.00 | 0.00 | 0.00 | 80 | 1014.7 |
| 20260903160121 | 83 | 168 | 8.0 | 13.0 | 0.00 | 0.00 | 0.00 | 80 | 1014.7 |
| 20260903155620 | 83 | 204 | 7.0 | 8.0 | 0.00 | 0.00 | 0.00 | 80 | 1014.8 |
| 20260903155115 | 83 | 102 | 5.0 | 6.0 | 0.00 | 0.00 | 0.00 | 81 | 1014.6 |
| 20260903154611 | 82 | 183 | 7.0 | 11.0 | 0.00 | 0.00 | 0.00 | 81 | 1014.6 |
| 20260903154108 | 82 | 185 | 6.0 | 9.0 | 0.00 | 0.00 | 0.00 | 81 | 1014.5 |
| 20260903153603 | 82 | 133 | 7.0 | 9.0 | 0.00 | 0.00 | 0.00 | 82 | 1014.4 |
| 20260903153058 | 82 | 167 | 7.0 | 10.0 | 0.00 | 0.00 | 0.00 | 81 | 1014.6 |
| 20260903152554 | 82 | 138 | 2.0 | 6.0 | 0.00 | 0.00 | 0.00 | 82 | 1014.2 |
| 20260903152050 | 82 | 194 | 8.0 | 11.0 | 0.00 | 0.00 | 0.00 | 82 | 1014.4 |
| 20260903151549 | 82 | 164 | 6.0 | 13.0 | 0.00 | 0.00 | 0.00 | 82 | 1014.5 |
| 20260903151045 | 82 | 32 | 2.0 | 9.0 | 0.00 | 0.00 | 0.00 | 82 | 1014.4 |
| 20260903150544 | 82 | 171 | 3.0 | 8.0 | 0.00 | 0.00 | 0.00 | 82 | 1014.5 |
| 20260903150040 | 82 | 109 | 6.0 | 11.0 | 0.00 | 0.00 | 0.00 | 83 | 1014.7 |
| 20260903145534 | 82 | 132 | 4.0 | 9.0 | 0.00 | 0.00 | 0.00 | 82 | 1014.6 |
| 20260903145029 | 81 | 79 | 3.0 | 5.0 | 0.00 | 0.00 | 0.00 | 83 | 1014.6 |
| 20260903144528 | 81 | 169 | 4.0 | 8.0 | 0.00 | 0.00 | 0.00 | 84 | 1014.7 |
| 20260903144024 | 81 | 310 | 3.0 | 6.0 | 0.00 | 0.00 | 0.00 | 84 | 1014.6 |
| 20260903143521 | 80 | 104 | 5.0 | 6.0 | 0.00 | 0.00 | 0.00 | 85 | 1014.4 |
| 20260903143016 | 80 | 50 | 2.0 | 6.0 | 0.00 | 0.00 | 0.00 | 85 | 1014.4 |
| 20260903142511 | 80 | 288 | 3.0 | 6.0 | 0.00 | 0.00 | 0.00 | 85 | 1014.4 |
| 20260903142008 | 80 | 191 | 4.0 | 8.0 | 0.00 | 0.00 | 0.00 | 85 | 1014.7 |
| 20260903141503 | 79 | 62 | 2.0 | 7.0 | 0.00 | 0.00 | 0.00 | 86 | 1014.6 |
| 20260903140958 | 79 | 143 | 6.0 | 7.0 | 0.00 | 0.00 | 0.00 | 86 | 1014.6 |
| 20260903140454 | 79 | 86 | 1.0 | 7.0 | 0.00 | 0.00 | 0.00 | 87 | 1014.9 |
| 20260903135949 | 79 | 166 | 4.0 | 8.0 | 0.00 | 0.00 | 0.00 | 87 | 1015.0 |
| 20260903135445 | 79 | 45 | 3.0 | 9.0 | 0.00 | 0.00 | 0.00 | 87 | 1014.9 |
| 20260903134945 | 79 | 115 | 8.0 | 10.0 | 0.00 | 0.00 | 0.00 | 86 | 1015.0 |
| 20260903134444 | 79 | 35 | 2.0 | 5.0 | 0.00 | 0.00 | 0.00 | 86 | 1014.8 |
| 20260903133941 | 79 | 132 | 1.0 | 5.0 | 0.00 | 0.00 | 0.00 | 86 | 1014.7 |
| 20260903133437 | 79 | 105 | 4.0 | 7.0 | 0.00 | 0.00 | 0.00 | 86 | 1014.5 |
| 20260903132932 | 79 | 191 | 4.0 | 7.0 | 0.00 | 0.00 | 0.00 | 86 | 1014.3 |
| 20260903132428 | 78 | 204 | 8.0 | 9.0 | 0.00 | 0.00 | 0.00 | 87 | 1014.4 |
| 20260903131928 | 78 | 67 | 3.0 | 9.0 | 0.00 | 0.00 | 0.00 | 87 | 1014.5 |
| 20260903131423 | 78 | 168 | 5.0 | 9.0 | 0.00 | 0.00 | 0.00 | 87 | 1014.4 |
| 20260903130921 | 78 | 144 | 3.0 | 5.0 | 0.00 | 0.00 | 0.00 | 87 | 1014.3 |
| 20260903130417 | 78 | 89 | 4.0 | 6.0 | 0.00 | 0.00 | 0.00 | 87 | 1014.2 |
| 20260903125915 | 78 | 55 | 3.0 | 8.0 | 0.00 | 0.00 | 0.00 | 87 | 1014.3 |
| 20260903125410 | 78 | 135 | 3.0 | 10.0 | 0.00 | 0.00 | 0.00 | 86 | 1014.3 |
| 20260903124909 | 79 | 86 | 5.0 | 7.0 | 0.00 | 0.00 | 0.00 | 85 | 1014.5 |
| 20260903124405 | 78 | 106 | 4.0 | 8.0 | 0.00 | 0.00 | 0.00 | 85 | 1014.1 |
| 20260903123904 | 79 | 90 | 3.0 | 8.0 | 0.00 | 0.00 | 0.00 | 85 | 1014.2 |
| 20260903123359 | 79 | 355 | 1.0 | 8.0 | 0.00 | 0.00 | 0.00 | 85 | 1014.4 |
| 20260903122857 | 79 | 178 | 5.0 | 7.0 | 0.00 | 0.00 | 0.00 | 85 | 1014.0 |
| 20260903122352 | 79 | 114 | 3.0 | 6.0 | 0.00 | 0.00 | 0.00 | 85 | 1014.0 |
| 20260903121851 | 79 | 44 | 2.0 | 7.0 | 0.00 | 0.00 | 0.00 | 85 | 1013.9 |
| 20260903121340 | 78 | 147 | 6.0 | 7.0 | 0.00 | 0.00 | 0.00 | 85 | 1014.2 |
| 20260903120836 | 78 | 25 | 1.0 | 5.0 | 0.00 | 0.00 | 0.00 | 85 | 1014.0 |
| 20260903120335 | 78 | 54 | 3.0 | 7.0 | 0.00 | 0.00 | 0.00 | 85 | 1013.9 |
| 20260903115833 | 79 | 108 | 3.0 | 7.0 | 0.00 | 0.00 | 0.00 | 84 | 1014.1 |
| 20260903115329 | 78 | 118 | 3.0 | 6.0 | 0.00 | 0.00 | 0.00 | 85 | 1013.9 |
| 20260903114828 | 78 | 124 | 5.0 | 6.0 | 0.00 | 0.00 | 0.00 | 85 | 1013.8 |
| 20260903114325 | 78 | 103 | 2.0 | 5.0 | 0.00 | 0.00 | 0.00 | 85 | 1013.8 |
| 20260903113825 | 78 | 79 | 3.0 | 5.0 | 0.00 | 0.00 | 0.00 | 85 | 1013.9 |
| 20260903113315 | 78 | 107 | 3.0 | 6.0 | 0.00 | 0.00 | 0.00 | 85 | 1013.9 |
| 20260903112811 | 78 | 80 | 5.0 | 8.0 | 0.00 | 0.00 | 0.00 | 84 | 1014.0 |
| 20260903112307 | 78 | 42 | 2.0 | 5.0 | 0.00 | 0.00 | 0.00 | 84 | 1013.9 |
| 20260903111805 | 78 | 47 | 3.0 | 7.0 | 0.00 | 0.00 | 0.00 | 84 | 1014.0 |
| 20260903111300 | 78 | 148 | 2.0 | 7.0 | 0.00 | 0.00 | 0.00 | 83 | 1014.0 |
| 20260903110756 | 79 | 179 | 2.0 | 2.0 | 0.00 | 0.00 | 0.00 | 83 | 1014.0 |
| 20260903110252 | 79 | 80 | 3.0 | 3.0 | 0.00 | 0.00 | 0.00 | 82 | 1014.1 |
| 20260903105751 | 79 | 179 | 4.0 | 7.0 | 0.00 | 0.00 | 0.00 | 82 | 1014.1 |
| 20260903105247 | 79 | 154 | 2.0 | 5.0 | 0.00 | 0.00 | 0.00 | 82 | 1013.7 |
| 20260903104746 | 79 | 79 | 3.0 | 3.0 | 0.00 | 0.00 | 0.00 | 82 | 1013.5 |
| 20260903104241 | 79 | 40 | 2.0 | 6.0 | 0.00 | 0.00 | 0.00 | 82 | 1013.7 |
| 20260903103737 | 79 | 95 | 3.0 | 5.0 | 0.00 | 0.00 | 0.00 | 81 | 1013.6 |
| 20260903103233 | 79 | 193 | 0.0 | 5.0 | 0.00 | 0.00 | 0.00 | 81 | 1013.7 |
| 20260903102729 | 79 | 163 | 5.0 | 7.0 | 0.00 | 0.00 | 0.00 | 80 | 1013.7 |
| 20260903102223 | 79 | 35 | 2.0 | 7.0 | 0.00 | 0.00 | 0.00 | 80 | 1013.4 |
| 20260903101721 | 79 | 141 | 5.0 | 8.0 | 0.00 | 0.00 | 0.00 | 80 | 1013.4 |
| 20260903101218 | 80 | 38 | 2.0 | 10.0 | 0.00 | 0.00 | 0.00 | 79 | 1013.5 |
| 20260903100717 | 80 | 55 | 3.0 | 6.0 | 0.00 | 0.00 | 0.00 | 78 | 1013.6 |
| 20260903100212 | 80 | 40 | 3.0 | 7.0 | 0.00 | 0.00 | 0.00 | 77 | 1013.4 |
| 20260903095709 | 80 | 135 | 6.0 | 8.0 | 0.00 | 0.00 | 0.00 | 76 | 1013.7 |
| 20260903095204 | 80 | 63 | 2.0 | 5.0 | 0.00 | 0.00 | 0.00 | 76 | 1013.6 |
| 20260903094659 | 80 | 359 | 1.0 | 2.0 | 0.00 | 0.00 | 0.00 | 75 | 1013.6 |
| 20260903094154 | 80 | 135 | 1.0 | 3.0 | 0.00 | 0.00 | 0.00 | 75 | 1013.7 |
| 20260903093650 | 80 | 254 | 2.0 | 5.0 | 0.00 | 0.00 | 0.00 | 76 | 1013.9 |
| 20260903093145 | 80 | 289 | 2.0 | 3.0 | 0.00 | 0.00 | 0.00 | 76 | 1013.4 |
| 20260903092645 | 80 | 222 | 2.0 | 5.0 | 0.00 | 0.00 | 0.00 | 75 | 1013.7 |
| 20260903092140 | 80 | 249 | 3.0 | 3.0 | 0.00 | 0.00 | 0.00 | 75 | 1013.7 |
| 20260903091638 | 80 | 192 | 3.0 | 5.0 | 0.00 | 0.00 | 0.00 | 75 | 1013.7 |
| 20260903091132 | 80 | 226 | 2.0 | 3.0 | 0.00 | 0.00 | 0.00 | 76 | 1013.7 |
| 20260903090628 | 80 | 273 | 3.0 | 6.0 | 0.00 | 0.00 | 0.00 | 76 | 1013.5 |
| 20260903090127 | 80 | 324 | 2.0 | 6.0 | 0.00 | 0.00 | 0.00 | 76 | 1013.6 |
| 20260903085626 | 80 | 265 | 5.0 | 6.0 | 0.00 | 0.00 | 0.00 | 76 | 1013.5 |
| 20260903085122 | 80 | 244 | 3.0 | 6.0 | 0.00 | 0.00 | 0.00 | 76 | 1013.4 |
| 20260903084619 | 80 | 223 | 4.0 | 7.0 | 0.00 | 0.00 | 0.00 | 76 | 1013.4 |
| 20260903084114 | 80 | 116 | 2.0 | 2.0 | 0.00 | 0.00 | 0.00 | 76 | 1013.4 |
| 20260903083609 | 80 | 203 | 4.0 | 5.0 | 0.00 | 0.00 | 0.00 | 77 | 1013.5 |
| 20260903083104 | 80 | 168 | 2.0 | 5.0 | 0.00 | 0.00 | 0.00 | 78 | 1013.4 |
| 20260903082558 | 80 | 205 | 3.0 | 3.0 | 0.00 | 0.00 | 0.00 | 77 | 1013.3 |
| 20260903082054 | 80 | 140 | 3.0 | 7.0 | 0.00 | 0.00 | 0.00 | 78 | 1013.4 |
| 20260903081549 | 80 | 170 | 3.0 | 6.0 | 0.00 | 0.00 | 0.00 | 78 | 1013.4 |
| 20260903081045 | 80 | 181 | 3.0 | 6.0 | 0.00 | 0.00 | 0.00 | 78 | 1013.3 |
| 20260903080541 | 80 | 151 | 3.0 | 5.0 | 0.00 | 0.00 | 0.00 | 78 | 1013.6 |
| 20260903080037 | 80 | 186 | 2.0 | 3.0 | 0.00 | 0.00 | 0.00 | 78 | 1013.3 |
| 20260903075531 | 80 | 218 | 4.0 | 5.0 | 0.00 | 0.00 | 0.00 | 78 | 1013.5 |
| 20260903075027 | 80 | 193 | 3.0 | 3.0 | 0.00 | 0.00 | 0.00 | 78 | 1013.4 |
| 20260903074526 | 80 | 111 | 2.0 | 3.0 | 0.00 | 0.00 | 0.00 | 78 | 1013.5 |
| 20260903074015 | 80 | 38 | 2.0 | 3.0 | 0.00 | 0.00 | 0.00 | 78 | 1013.3 |
| 20260903073511 | 80 | 188 | 3.0 | 5.0 | 0.00 | 0.00 | 0.00 | 78 | 1013.7 |
| 20260903073007 | 80 | 13 | 1.0 | 2.0 | 0.00 | 0.00 | 0.00 | 79 | 1013.7 |
| 20260903072502 | 79 | 27 | 1.0 | 2.0 | 0.00 | 0.00 | 0.00 | 79 | 1013.5 |
| 20260903071959 | 79 | 44 | 2.0 | 2.0 | 0.00 | 0.00 | 0.00 | 80 | 1013.8 |
| 20260903071454 | 79 | 53 | 2.0 | 5.0 | 0.00 | 0.00 | 0.00 | 80 | 1013.6 |
| 20260903070950 | 79 | 65 | 3.0 | 6.0 | 0.00 | 0.00 | 0.00 | 80 | 1013.7 |
| 20260903070450 | 80 | 111 | 5.0 | 7.0 | 0.00 | 0.00 | 0.00 | 79 | 1013.4 |
| 20260903065950 | 80 | 64 | 3.0 | 5.0 | 0.00 | 0.00 | 0.00 | 78 | 1013.6 |
| 20260903065445 | 80 | 62 | 3.0 | 3.0 | 0.00 | 0.00 | 0.00 | 79 | 1013.4 |
| 20260903064944 | 80 | 69 | 4.0 | 5.0 | 0.00 | 0.00 | 0.00 | 79 | 1013.4 |
| 20260903064438 | 80 | 69 | 2.0 | 3.0 | 0.00 | 0.00 | 0.00 | 78 | 1013.7 |
| 20260903063929 | 80 | 21 | 1.0 | 2.0 | 0.00 | 0.00 | 0.00 | 78 | 1013.6 |
| 20260903063424 | 80 | 23 | 1.0 | 3.0 | 0.00 | 0.00 | 0.00 | 78 | 1013.5 |
| 20260903062919 | 80 | 45 | 3.0 | 5.0 | 0.00 | 0.00 | 0.00 | 77 | 1013.5 |
| 20260903062414 | 80 | 23 | 1.0 | 2.0 | 0.00 | 0.00 | 0.00 | 77 | 1013.6 |
| 20260903061910 | 80 | 17 | 0.0 | 1.0 | 0.00 | 0.00 | 0.00 | 77 | 1013.7 |
| 20260903061409 | 80 | 77 | 4.0 | 6.0 | 0.00 | 0.00 | 0.00 | 76 | 1013.4 |
| 20260903060905 | 80 | 51 | 3.0 | 5.0 | 0.00 | 0.00 | 0.00 | 76 | 1013.4 |
| 20260903060405 | 80 | 30 | 2.0 | 5.0 | 0.00 | 0.00 | 0.00 | 75 | 1013.7 |
| 20260903055902 | 81 | 31 | 1.0 | 6.0 | 0.00 | 0.00 | 0.00 | 75 | 1013.9 |
| 20260903055401 | 81 | 34 | 3.0 | 8.0 | 0.00 | 0.00 | 0.00 | 75 | 1013.6 |
| 20260903054856 | 81 | 100 | 5.0 | 8.0 | 0.00 | 0.00 | 0.00 | 74 | 1014.0 |
| 20260903054356 | 81 | 41 | 5.0 | 8.0 | 0.00 | 0.00 | 0.00 | 74 | 1013.9 |
| 20260903053853 | 81 | 42 | 3.0 | 8.0 | 0.00 | 0.00 | 0.00 | 74 | 1013.8 |
| 20260903053347 | 81 | 61 | 3.0 | 9.0 | 0.00 | 0.00 | 0.00 | 74 | 1013.8 |
| 20260903052843 | 81 | 80 | 8.0 | 10.0 | 0.00 | 0.00 | 0.00 | 74 | 1013.9 |
| 20260903052338 | 81 | 31 | 3.0 | 7.0 | 0.00 | 0.00 | 0.00 | 73 | 1013.9 |
| 20260903051834 | 81 | 59 | 6.0 | 13.0 | 0.00 | 0.00 | 0.00 | 72 | 1014.1 |
| 20260903051329 | 82 | 86 | 8.0 | 14.0 | 0.00 | 0.00 | 0.00 | 71 | 1014.1 |
| 20260903050825 | 82 | 57 | 6.0 | 7.0 | 0.00 | 0.00 | 0.00 | 71 | 1013.9 |
| 20260903050324 | 82 | 68 | 9.0 | 13.0 | 0.00 | 0.00 | 0.00 | 71 | 1013.9 |
| 20260903045819 | 82 | 124 | 3.0 | 11.0 | 0.00 | 0.00 | 0.00 | 71 | 1013.9 |
| 20260903045315 | 82 | 85 | 9.0 | 14.0 | 0.00 | 0.00 | 0.00 | 70 | 1013.9 |
| 20260903044811 | 82 | 70 | 3.0 | 13.0 | 0.00 | 0.00 | 0.00 | 69 | 1014.0 |
| 20260903044306 | 82 | 39 | 3.0 | 16.0 | 0.00 | 0.00 | 0.00 | 69 | 1013.9 |
| 20260903043803 | 83 | 34 | 4.0 | 13.0 | 0.00 | 0.00 | 0.00 | 69 | 1013.8 |
| 20260903043302 | 83 | 86 | 5.0 | 7.0 | 0.00 | 0.00 | 0.00 | 67 | 1013.7 |
| 20260903042801 | 84 | 84 | 7.0 | 10.0 | 0.00 | 0.00 | 0.00 | 67 | 1013.9 |
| 20260903042257 | 83 | 52 | 4.0 | 8.0 | 0.00 | 0.00 | 0.00 | 67 | 1013.7 |
| 20260903041753 | 84 | 120 | 4.0 | 9.0 | 0.00 | 0.00 | 0.00 | 66 | 1013.9 |
| 20260903041249 | 83 | 72 | 7.0 | 8.0 | 0.00 | 0.00 | 0.00 | 66 | 1013.9 |
| 20260903040748 | 83 | 85 | 9.0 | 11.0 | 0.00 | 0.00 | 0.00 | 66 | 1014.1 |
| 20260903040243 | 84 | 110 | 3.0 | 13.0 | 0.00 | 0.00 | 0.00 | 66 | 1014.2 |
| 20260903035739 | 84 | 64 | 1.0 | 3.0 | 0.00 | 0.00 | 0.00 | 65 | 1013.9 |
| 20260903035234 | 84 | 27 | 3.0 | 13.0 | 0.00 | 0.00 | 0.00 | 65 | 1013.7 |
| 20260903034729 | 84 | 136 | 7.0 | 11.0 | 0.00 | 0.00 | 0.00 | 65 | 1014.2 |
| 20260903034224 | 84 | 71 | 2.0 | 11.0 | 0.00 | 0.00 | 0.00 | 64 | 1013.9 |
| 20260903033719 | 85 | 54 | 6.0 | 15.0 | 0.00 | 0.00 | 0.00 | 64 | 1013.9 |
| 20260903033214 | 85 | 43 | 9.0 | 13.0 | 0.00 | 0.00 | 0.00 | 64 | 1014.1 |
| 20260903032709 | 85 | 28 | 4.0 | 13.0 | 0.00 | 0.00 | 0.00 | 63 | 1013.9 |
| 20260903032205 | 85 | 58 | 5.0 | 10.0 | 0.00 | 0.00 | 0.00 | 63 | 1013.9 |
| 20260903031700 | 86 | 26 | 6.0 | 11.0 | 0.00 | 0.00 | 0.00 | 62 | 1014.0 |
| 20260903031159 | 86 | 84 | 5.0 | 13.0 | 0.00 | 0.00 | 0.00 | 62 | 1014.0 |
| 20260903030656 | 86 | 56 | 4.0 | 7.0 | 0.00 | 0.00 | 0.00 | 61 | 1014.1 |
| 20260903030151 | 86 | 102 | 5.0 | 10.0 | 0.00 | 0.00 | 0.00 | 62 | 1013.9 |
| 20260903025646 | 86 | 55 | 5.0 | 13.0 | 0.00 | 0.00 | 0.00 | 62 | 1013.8 |
| 20260903025142 | 87 | 88 | 3.0 | 8.0 | 0.00 | 0.00 | 0.00 | 61 | 1013.6 |
| 20260903024637 | 87 | 71 | 4.0 | 9.0 | 0.00 | 0.00 | 0.00 | 60 | 1013.8 |
| 20260903024136 | 87 | 83 | 9.0 | 14.0 | 0.00 | 0.00 | 0.00 | 60 | 1013.8 |
| 20260903023632 | 87 | 29 | 2.0 | 16.0 | 0.00 | 0.00 | 0.00 | 60 | 1013.6 |
| 20260903023132 | 87 | 97 | 7.0 | 16.0 | 0.00 | 0.00 | 0.00 | 59 | 1013.9 |
| 20260903022626 | 88 | 128 | 6.0 | 13.0 | 0.00 | 0.00 | 0.00 | 58 | 1013.6 |
| 20260903022125 | 88 | 97 | 9.0 | 13.0 | 0.00 | 0.00 | 0.00 | 58 | 1013.6 |
| 20260903021620 | 88 | 104 | 4.0 | 10.0 | 0.00 | 0.00 | 0.00 | 57 | 1013.5 |
| 20260903021120 | 89 | 143 | 5.0 | 9.0 | 0.00 | 0.00 | 0.00 | 57 | 1013.4 |
| 20260903020616 | 89 | 86 | 7.0 | 13.0 | 0.00 | 0.00 | 0.00 | 56 | 1013.1 |
| 20260903020110 | 89 | 105 | 6.0 | 11.0 | 0.00 | 0.00 | 0.00 | 56 | 1013.3 |
| 20260903015606 | 89 | 96 | 9.0 | 16.0 | 0.00 | 0.00 | 0.00 | 56 | 1013.4 |
| 20260903015101 | 89 | 93 | 5.0 | 8.0 | 0.00 | 0.00 | 0.00 | 55 | 1013.0 |
| 20260903014600 | 90 | 102 | 7.0 | 9.0 | 0.00 | 0.00 | 0.00 | 55 | 1013.1 |
| 20260903014055 | 90 | 152 | 7.0 | 13.0 | 0.00 | 0.00 | 0.00 | 54 | 1012.7 |
| 20260903013555 | 91 | 98 | 7.0 | 10.0 | 0.00 | 0.00 | 0.00 | 52 | 1013.0 |
| 20260903013044 | 91 | 59 | 3.0 | 7.0 | 0.00 | 0.00 | 0.00 | 51 | 1012.8 |
| 20260903012543 | 91 | 147 | 5.0 | 7.0 | 0.00 | 0.00 | 0.00 | 51 | 1013.0 |
| 20260903012042 | 92 | 90 | 6.0 | 9.0 | 0.00 | 0.00 | 0.00 | 50 | 1012.5 |
| 20260903011537 | 92 | 89 | 4.0 | 7.0 | 0.00 | 0.00 | 0.00 | 49 | 1012.7 |
| 20260903011032 | 92 | 53 | 3.0 | 6.0 | 0.00 | 0.00 | 0.00 | 49 | 1012.5 |
| 20260903010527 | 92 | 59 | 3.0 | 10.0 | 0.00 | 0.00 | 0.00 | 48 | 1012.4 |
| 20260903010025 | 92 | 53 | 5.0 | 8.0 | 0.00 | 0.00 | 0.00 | 48 | 1012.4 |
| 20260903005520 | 93 | 42 | 3.0 | 9.0 | 0.00 | 0.00 | 0.00 | 48 | 1012.3 |
| 20260903005016 | 93 | 73 | 4.0 | 14.0 | 0.00 | 0.00 | 0.00 | 49 | 1012.4 |
| 20260903004516 | 93 | 115 | 5.0 | 9.0 | 0.00 | 0.00 | 0.00 | 51 | 1012.4 |
| 20260903004011 | 93 | 95 | 5.0 | 7.0 | 0.00 | 0.00 | 0.00 | 52 | 1012.5 |
| 20260903003506 | 93 | 101 | 6.0 | 8.0 | 0.00 | 0.00 | 0.00 | 53 | 1012.4 |
| 20260903003001 | 93 | 109 | 4.0 | 8.0 | 0.00 | 0.00 | 0.00 | 51 | 1012.1 |
| 20260903002501 | 93 | 54 | 5.0 | 8.0 | 0.00 | 0.00 | 0.00 | 52 | 1012.1 |
| 20260903002001 | 93 | 27 | 5.0 | 6.0 | 0.00 | 0.00 | 0.00 | 52 | 1012.1 |
| 20260903001456 | 93 | 43 | 4.0 | 9.0 | 0.00 | 0.00 | 0.00 | 52 | 1012.2 |
| 20260903000950 | 93 | 55 | 7.0 | 9.0 | 0.00 | 0.00 | 0.00 | 52 | 1012.3 |
| 20260903000447 | 93 | 61 | 7.0 | 9.0 | 0.00 | 0.00 | 0.00 | 52 | 1012.3 |
| 20260902235943 | 93 | 46 | 4.0 | 10.0 | 0.00 | 0.00 | 0.00 | 52 | 1012.1 |
| 20260902235438 | 93 | 34 | 4.0 | 8.0 | 0.00 | 0.00 | 0.00 | 51 | 1011.9 |
| 20260902234932 | 93 | 46 | 4.0 | 7.0 | 0.00 | 0.00 | 0.00 | 51 | 1012.1 |
| 20260902234428 | 93 | 41 | 4.0 | 7.0 | 0.00 | 0.00 | 0.00 | 51 | 1012.1 |
| 20260902233927 | 93 | 54 | 2.0 | 9.0 | 0.00 | 0.00 | 0.00 | 51 | 1012.1 |
| 20260902233421 | 94 | 26 | 3.0 | 10.0 | 0.00 | 0.00 | 0.00 | 50 | 1012.1 |
| 20260902232920 | 93 | 28 | 1.0 | 3.0 | 0.00 | 0.00 | 0.00 | 50 | 1012.1 |
| 20260902232415 | 93 | 70 | 2.0 | 3.0 | 0.00 | 0.00 | 0.00 | 51 | 1011.8 |
| 20260902231915 | 93 | 79 | 3.0 | 11.0 | 0.00 | 0.00 | 0.00 | 53 | 1012.1 |
| 20260902231410 | 93 | 54 | 4.0 | 8.0 | 0.00 | 0.00 | 0.00 | 51 | 1012.2 |
| 20260902230904 | 92 | 84 | 5.0 | 21.0 | 0.00 | 0.00 | 0.00 | 49 | 1012.2 |
| 20260902230404 | 94 | 25 | 9.0 | 21.0 | 0.00 | 0.00 | 0.00 | 47 | 1011.8 |
| 20260902225858 | 95 | 69 | 11.0 | 24.0 | 0.00 | 0.00 | 0.00 | 48 | 1011.8 |
| 20260902225353 | 98 | 76 | 15.0 | 25.0 | 0.00 | 0.00 | 0.00 | 43 | 1011.9 |
| 20260902224852 | 98 | 32 | 4.0 | 10.0 | 0.00 | 0.00 | 0.00 | 42 | 1011.5 |
| 20260902224346 | 98 | 30 | 4.0 | 8.0 | 0.00 | 0.00 | 0.00 | 41 | 1011.5 |
| 20260902223843 | 99 | 61 | 6.0 | 11.0 | 0.00 | 0.00 | 0.00 | 40 | 1011.6 |
| 20260902223343 | 98 | 51 | 6.0 | 10.0 | 0.00 | 0.00 | 0.00 | 40 | 1011.4 |
| 20260902222837 | 97 | 15 | 7.0 | 8.0 | 0.00 | 0.00 | 0.00 | 42 | 1011.3 |
| 20260902222336 | 99 | 3 | 5.0 | 7.0 | 0.00 | 0.00 | 0.00 | 40 | 1011.9 |
| 20260902221831 | 97 | 348 | 4.0 | 10.0 | 0.00 | 0.00 | 0.00 | 42 | 1011.8 |
| 20260902221330 | 98 | 89 | 3.0 | 11.0 | 0.00 | 0.00 | 0.00 | 41 | 1011.9 |
| 20260902220826 | 98 | 23 | 8.0 | 11.0 | 0.00 | 0.00 | 0.00 | 41 | 1011.8 |
| 20260902220325 | 97 | 34 | 1.0 | 13.0 | 0.00 | 0.00 | 0.00 | 42 | 1011.8 |
| 20260902215820 | 98 | 64 | 5.0 | 11.0 | 0.00 | 0.00 | 0.00 | 42 | 1011.8 |
| 20260902215315 | 99 | 1 | 3.0 | 6.0 | 0.00 | 0.00 | 0.00 | 40 | 1012.0 |
| 20260902214811 | 98 | 48 | 3.0 | 9.0 | 0.00 | 0.00 | 0.00 | 40 | 1011.8 |
| 20260902214310 | 98 | 150 | 5.0 | 7.0 | 0.00 | 0.00 | 0.00 | 40 | 1012.0 |
| 20260902213806 | 98 | 47 | 4.0 | 11.0 | 0.00 | 0.00 | 0.00 | 41 | 1012.0 |
| 20260902213301 | 98 | 28 | 5.0 | 17.0 | 0.00 | 0.00 | 0.00 | 41 | 1012.2 |
| 20260902212759 | 98 | 25 | 3.0 | 5.0 | 0.00 | 0.00 | 0.00 | 40 | 1012.1 |
| 20260902212256 | 98 | 47 | 2.0 | 8.0 | 0.00 | 0.00 | 0.00 | 42 | 1012.1 |
| 20260902211752 | 98 | 39 | 8.0 | 14.0 | 0.00 | 0.00 | 0.00 | 40 | 1012.5 |
| 20260902211248 | 101 | 9 | 5.0 | 11.0 | 0.00 | 0.00 | 0.00 | 40 | 1012.2 |
| 20260902210748 | 99 | 27 | 3.0 | 7.0 | 0.00 | 0.00 | 0.00 | 40 | 1012.2 |
| 20260902210243 | 97 | 6 | 1.0 | 10.0 | 0.00 | 0.00 | 0.00 | 41 | 1012.3 |
| 20260902205741 | 97 | 46 | 3.0 | 8.0 | 0.00 | 0.00 | 0.00 | 41 | 1012.6 |
| 20260902205236 | 97 | 39 | 3.0 | 3.0 | 0.00 | 0.00 | 0.00 | 42 | 1012.5 |
| 20260902204731 | 98 | 36 | 7.0 | 13.0 | 0.00 | 0.00 | 0.00 | 42 | 1012.8 |
| 20260902204227 | 97 | 36 | 1.0 | 7.0 | 0.00 | 0.00 | 0.00 | 42 | 1012.6 |
| 20260902203721 | 97 | 11 | 5.0 | 8.0 | 0.00 | 0.00 | 0.00 | 42 | 1012.6 |
| 20260902203216 | 97 | 109 | 6.0 | 10.0 | 0.00 | 0.00 | 0.00 | 42 | 1012.7 |
| 20260902202710 | 98 | 352 | 5.0 | 7.0 | 0.00 | 0.00 | 0.00 | 42 | 1012.9 |